SWA1280 KMDW-KBOS

Flight info

Callsign SWA1280
Flight time 1h 39m
Altitude 35000
Route LEWKE GIJ EVOTE NELLS KEEHO JHW Q82 PONCT JFUND2
Aircraft B738/M-SDE2E3FGHIRWXY/LB1

Departure

Time 2026-05-06 21:26
Airport Chicago Midway International Airport (KMDW)

Arrival

Time 2026-05-06 23:06
Airport Boston Logan International Airport (KBOS)
Time Latitude Longitude Altitude Speed Heading
2026-05-06 20:33 41.78605 -87.74612 628 ft 0 kts 38°
2026-05-06 21:18 41.78591 -87.74627 630 ft 3 kts 38°
2026-05-06 21:18 41.78575 -87.74644 628 ft 3 kts 45°
2026-05-06 21:18 41.78561 -87.74665 636 ft 3 kts 59°
2026-05-06 21:19 41.78553 -87.74689 632 ft 3 kts 86°
2026-05-06 21:19 41.78556 -87.74713 631 ft 3 kts 131°
2026-05-06 21:19 41.78561 -87.74720 636 ft 0 kts 134°
2026-05-06 21:22 41.78551 -87.74706 630 ft 5 kts 133°
2026-05-06 21:22 41.78515 -87.74655 633 ft 10 kts 134°
2026-05-06 21:23 41.78465 -87.74586 632 ft 10 kts 133°
2026-05-06 21:23 41.78417 -87.74518 628 ft 10 kts 134°
2026-05-06 21:23 41.78370 -87.74452 634 ft 10 kts 133°
2026-05-06 21:23 41.78324 -87.74388 633 ft 9 kts 140°
2026-05-06 21:24 41.78262 -87.74368 632 ft 9 kts 177°
2026-05-06 21:24 41.78200 -87.74365 632 ft 9 kts 179°
2026-05-06 21:24 41.78139 -87.74363 628 ft 9 kts 178°
2026-05-06 21:24 41.78079 -87.74360 628 ft 8 kts 177°
2026-05-06 21:25 41.78025 -87.74375 627 ft 8 kts 214°
2026-05-06 21:25 41.77983 -87.74417 627 ft 6 kts 225°
2026-05-06 21:25 41.77990 -87.74461 630 ft 2 kts 310°
2026-05-06 21:26 41.78085 -87.74601 633 ft 58 kts 313°
2026-05-06 21:26 41.78553 -87.75256 627 ft 134 kts 313°
2026-05-06 21:26 41.79303 -87.76318 1018 ft 164 kts 309°
2026-05-06 21:26 41.80135 -87.77422 2017 ft 171 kts 314°
2026-05-06 21:27 41.81140 -87.78457 2336 ft 199 kts 333°
2026-05-06 21:27 41.82589 -87.78655 2548 ft 228 kts
2026-05-06 21:27 41.84041 -87.77628 2957 ft 249 kts 41°
2026-05-06 21:27 41.84997 -87.75606 3350 ft 271 kts 69°
2026-05-06 21:28 41.85227 -87.73072 4143 ft 279 kts 96°
2026-05-06 21:28 41.84924 -87.70481 4928 ft 284 kts 100°
2026-05-06 21:28 41.84561 -87.67872 5756 ft 286 kts 101°
2026-05-06 21:28 41.84181 -87.65202 6535 ft 289 kts 101°
2026-05-06 21:29 41.83807 -87.62539 7252 ft 292 kts 101°
2026-05-06 21:29 41.83433 -87.59844 7995 ft 295 kts 101°
2026-05-06 21:29 41.83061 -87.57121 8729 ft 299 kts 101°
2026-05-06 21:29 41.82688 -87.54366 9460 ft 302 kts 101°
2026-05-06 21:30 41.82314 -87.51578 10131 ft 306 kts 101°
2026-05-06 21:30 41.81926 -87.48690 10376 ft 326 kts 101°
2026-05-06 21:30 41.81513 -87.45619 10672 ft 341 kts 101°
2026-05-06 21:30 41.81089 -87.42452 11167 ft 349 kts 102°
2026-05-06 21:31 41.80655 -87.39215 11716 ft 356 kts 102°
2026-05-06 21:31 41.80213 -87.35920 12305 ft 363 kts 102°
2026-05-06 21:31 41.79761 -87.32559 12841 ft 370 kts 103°
2026-05-06 21:31 41.79298 -87.29123 13393 ft 378 kts 103°
2026-05-06 21:32 41.78826 -87.25629 13980 ft 384 kts 103°
2026-05-06 21:32 41.77864 -87.18518 15255 ft 392 kts 103°
2026-05-06 21:32 41.77367 -87.14853 15890 ft 396 kts 103°
2026-05-06 21:33 41.76869 -87.11203 16512 ft 401 kts 103°
2026-05-06 21:33 41.76369 -87.07506 17103 ft 406 kts 102°
2026-05-06 21:33 41.76111 -87.03709 17707 ft 413 kts 92°
2026-05-06 21:33 41.76143 -86.99832 18318 ft 418 kts 90°
2026-05-06 21:34 41.76223 -86.95924 18836 ft 422 kts 90°
2026-05-06 21:34 41.76310 -86.91976 19382 ft 425 kts 90°
2026-05-06 21:34 41.76386 -86.88013 19939 ft 428 kts 90°
2026-05-06 21:34 41.76448 -86.84007 20441 ft 433 kts 91°
2026-05-06 21:35 41.76500 -86.79958 20949 ft 437 kts 91°
2026-05-06 21:35 41.76544 -86.75867 21473 ft 441 kts 91°
2026-05-06 21:35 41.76584 -86.71744 21975 ft 445 kts 91°
2026-05-06 21:35 41.76622 -86.67587 22481 ft 449 kts 91°
2026-05-06 21:36 41.76660 -86.63394 22978 ft 453 kts 92°
2026-05-06 21:36 41.76696 -86.59160 23456 ft 457 kts 92°
2026-05-06 21:36 41.76732 -86.54894 23861 ft 461 kts 92°
2026-05-06 21:36 41.76766 -86.50576 24206 ft 466 kts 92°
2026-05-06 21:37 41.76799 -86.46212 24520 ft 472 kts 92°
2026-05-06 21:37 41.76832 -86.41791 24841 ft 477 kts 92°
2026-05-06 21:37 41.76864 -86.37310 25181 ft 483 kts 92°
2026-05-06 21:37 41.76923 -86.32803 25532 ft 488 kts 89°
2026-05-06 21:38 41.77356 -86.28264 25843 ft 496 kts 78°
2026-05-06 21:38 41.78120 -86.23728 26170 ft 501 kts 76°
2026-05-06 21:38 41.78945 -86.19170 26501 ft 506 kts 76°
2026-05-06 21:38 41.79786 -86.14568 26772 ft 512 kts 76°
2026-05-06 21:39 41.80625 -86.09905 27050 ft 518 kts 76°
2026-05-06 21:39 41.81456 -86.05179 27364 ft 523 kts 77°
2026-05-06 21:39 41.82275 -86.00421 27679 ft 527 kts 77°
2026-05-06 21:39 41.83092 -85.95601 27983 ft 532 kts 77°
2026-05-06 21:40 41.83908 -85.90747 28269 ft 537 kts 77°
2026-05-06 21:40 41.84732 -85.85829 28555 ft 542 kts 77°
2026-05-06 21:40 41.85571 -85.80814 28852 ft 547 kts 77°
2026-05-06 21:40 41.86394 -85.75884 29129 ft 551 kts 77°
2026-05-06 21:41 41.87235 -85.70843 29401 ft 556 kts 77°
2026-05-06 21:41 41.88092 -85.65695 29670 ft 560 kts 77°
2026-05-06 21:41 41.88942 -85.60577 29939 ft 565 kts 77°
2026-05-06 21:41 41.89798 -85.55405 30183 ft 569 kts 78°
2026-05-06 21:42 41.90649 -85.50242 30706 ft 564 kts 77°
2026-05-06 21:42 41.91491 -85.45127 31275 ft 559 kts 77°
2026-05-06 21:42 41.92328 -85.40019 31473 ft 563 kts 78°
2026-05-06 21:42 41.93174 -85.34847 31599 ft 569 kts 78°
2026-05-06 21:43 41.94001 -85.29773 31810 ft 571 kts 78°
2026-05-06 21:43 41.94816 -85.24558 32138 ft 571 kts 81°
2026-05-06 21:43 41.95263 -85.19274 32506 ft 567 kts 92°
2026-05-06 21:43 41.95281 -85.14008 32902 ft 563 kts 95°
2026-05-06 21:44 41.95231 -85.09529 33188 ft 563 kts 95°
2026-05-06 21:44 41.95150 -85.04269 33441 ft 563 kts 95°
2026-05-06 21:44 41.95072 -84.98995 33592 ft 567 kts 95°
2026-05-06 21:44 41.95010 -84.93689 33739 ft 571 kts 95°
2026-05-06 21:45 41.94972 -84.89056 34002 ft 571 kts 95°
2026-05-06 21:45 41.94942 -84.83730 34342 ft 568 kts 94°
2026-05-06 21:45 41.94919 -84.78447 34748 ft 564 kts 94°
2026-05-06 21:45 41.94897 -84.73260 35004 ft 564 kts 94°
2026-05-06 21:46 41.94836 -84.62673 34962 ft 568 kts 95°
2026-05-06 21:46 41.94759 -84.52059 34979 ft 568 kts 95°
2026-05-06 21:47 41.94671 -84.41466 34988 ft 567 kts 95°
2026-05-06 21:47 41.94573 -84.30883 34986 ft 567 kts 95°
2026-05-06 21:48 41.94466 -84.20306 34972 ft 566 kts 95°
2026-05-06 21:48 41.94348 -84.09659 34983 ft 566 kts 95°
2026-05-06 21:49 41.94221 -83.99079 34983 ft 567 kts 95°
2026-05-06 21:49 41.94084 -83.88490 34966 ft 568 kts 95°
2026-05-06 21:50 41.93938 -83.77885 34976 ft 568 kts 95°
2026-05-06 21:50 41.93781 -83.67266 34984 ft 569 kts 95°
2026-05-06 21:51 41.93615 -83.56624 34975 ft 571 kts 95°
2026-05-06 21:51 41.93453 -83.45963 34971 ft 571 kts 95°
2026-05-06 21:52 41.93401 -83.35283 34985 ft 573 kts 94°
2026-05-06 21:52 41.93383 -83.24571 34981 ft 574 kts 94°
2026-05-06 21:53 41.93340 -83.13843 34947 ft 575 kts 94°
2026-05-06 21:53 41.93270 -83.03111 34964 ft 575 kts 94°
2026-05-06 21:54 41.93187 -82.92381 34970 ft 575 kts 94°
2026-05-06 21:54 41.93111 -82.83380 34969 ft 576 kts 94°
2026-05-06 21:55 41.93012 -82.72626 34944 ft 575 kts 94°
2026-05-06 21:55 41.92903 -82.61884 34964 ft 576 kts 94°
2026-05-06 21:56 41.92784 -82.51133 34966 ft 576 kts 94°
2026-05-06 21:56 41.92655 -82.40373 34963 ft 577 kts 95°
2026-05-06 21:57 41.92516 -82.29610 34958 ft 576 kts 94°
2026-05-06 21:57 41.92367 -82.18854 34961 ft 577 kts 95°
2026-05-06 21:58 41.92208 -82.08080 34954 ft 577 kts 95°
2026-05-06 21:58 41.92039 -81.97316 35003 ft 575 kts 95°
2026-05-06 21:59 41.91865 -81.86680 34956 ft 566 kts 95°
2026-05-06 21:59 41.92395 -81.76038 34979 ft 570 kts 82°
2026-05-06 22:00 41.93641 -81.65507 34939 ft 572 kts 81°
2026-05-06 22:00 41.94906 -81.54954 34972 ft 573 kts 81°
2026-05-06 22:01 41.96096 -81.44355 34978 ft 574 kts 82°
2026-05-06 22:01 41.97241 -81.33718 34974 ft 576 kts 82°
2026-05-06 22:02 41.98375 -81.23063 34958 ft 577 kts 82°
2026-05-06 22:02 41.99507 -81.12384 34962 ft 577 kts 82°
2026-05-06 22:03 42.00632 -81.01709 34968 ft 577 kts 82°
2026-05-06 22:03 42.01748 -80.91023 34972 ft 577 kts 82°
2026-05-06 22:04 42.02853 -80.80346 34976 ft 576 kts 82°
2026-05-06 22:04 42.03946 -80.69677 35000 ft 575 kts 82°
2026-05-06 22:05 42.05027 -80.59027 34967 ft 574 kts 83°
2026-05-06 22:05 42.06095 -80.48403 34949 ft 571 kts 82°
2026-05-06 22:06 42.07148 -80.37832 34965 ft 569 kts 83°
2026-05-06 22:06 42.08187 -80.27296 34964 ft 567 kts 83°
2026-05-06 22:07 42.09213 -80.16796 34970 ft 566 kts 83°
2026-05-06 22:07 42.10235 -80.06227 34973 ft 565 kts 83°
2026-05-06 22:08 42.11242 -79.95722 34976 ft 566 kts 83°
2026-05-06 22:08 42.12240 -79.85200 34970 ft 567 kts 83°
2026-05-06 22:09 42.13230 -79.74654 34959 ft 568 kts 83°
2026-05-06 22:09 42.14212 -79.64096 34957 ft 569 kts 83°
2026-05-06 22:10 42.15187 -79.53504 34942 ft 570 kts 83°
2026-05-06 22:10 42.16152 -79.42901 34935 ft 570 kts 83°
2026-05-06 22:11 42.17107 -79.32303 34936 ft 569 kts 83°
2026-05-06 22:11 42.18052 -79.21715 34945 ft 568 kts 83°
2026-05-06 22:12 42.18997 -79.11144 34953 ft 568 kts 82°
2026-05-06 22:12 42.20247 -79.00648 34939 ft 566 kts 79°
2026-05-06 22:13 42.21659 -78.90221 34954 ft 564 kts 78°
2026-05-06 22:13 42.23034 -78.79803 34954 ft 564 kts 79°
2026-05-06 22:14 42.24353 -78.69385 34929 ft 563 kts 79°
2026-05-06 22:14 42.25648 -78.58969 34907 ft 562 kts 79°
2026-05-06 22:15 42.26938 -78.48524 34895 ft 560 kts 79°
2026-05-06 22:15 42.28214 -78.38177 34898 ft 558 kts 79°
2026-05-06 22:16 42.29476 -78.27845 34896 ft 557 kts 79°
2026-05-06 22:16 42.30724 -78.17523 34904 ft 556 kts 79°
2026-05-06 22:17 42.31963 -78.07211 34927 ft 556 kts 80°
2026-05-06 22:17 42.33194 -77.96892 34960 ft 556 kts 80°
2026-05-06 22:18 42.34416 -77.86571 34948 ft 557 kts 80°
2026-05-06 22:18 42.35630 -77.76210 34926 ft 558 kts 80°
2026-05-06 22:19 42.36822 -77.65861 34965 ft 558 kts 81°
2026-05-06 22:19 42.38007 -77.55478 34916 ft 558 kts 81°
2026-05-06 22:20 42.39180 -77.45120 34921 ft 557 kts 81°
2026-05-06 22:20 42.40342 -77.34783 34906 ft 554 kts 81°
2026-05-06 22:21 42.41489 -77.24508 34922 ft 551 kts 81°
2026-05-06 22:21 42.42622 -77.14261 34918 ft 549 kts 81°
2026-05-06 22:22 42.43751 -77.03980 34917 ft 549 kts 81°
2026-05-06 22:22 42.44878 -76.93763 34913 ft 549 kts 81°
2026-05-06 22:23 42.46015 -76.83546 34911 ft 549 kts 81°
2026-05-06 22:23 42.47137 -76.73310 34932 ft 551 kts 81°
2026-05-06 22:24 42.48245 -76.63030 34926 ft 552 kts 81°
2026-05-06 22:24 42.49343 -76.52740 34907 ft 552 kts 81°
2026-05-06 22:25 42.50434 -76.42450 34909 ft 552 kts 81°
2026-05-06 22:25 42.51519 -76.32148 34911 ft 552 kts 81°
2026-05-06 22:26 42.52583 -76.21848 34910 ft 552 kts 82°
2026-05-06 22:26 42.53626 -76.11546 34870 ft 551 kts 82°
2026-05-06 22:27 42.54657 -76.01290 34888 ft 548 kts 82°
2026-05-06 22:27 42.55681 -75.91052 34882 ft 548 kts 82°
2026-05-06 22:28 42.56531 -75.82472 34915 ft 548 kts 82°
2026-05-06 22:28 42.57536 -75.72244 34872 ft 547 kts 82°
2026-05-06 22:29 42.58535 -75.62026 34884 ft 544 kts 82°
2026-05-06 22:29 42.59521 -75.51873 34884 ft 542 kts 82°
2026-05-06 22:30 42.60497 -75.41739 34847 ft 541 kts 82°
2026-05-06 22:30 42.61456 -75.31670 34876 ft 538 kts 82°
2026-05-06 22:31 42.62403 -75.21634 34878 ft 537 kts 83°
2026-05-06 22:31 42.63345 -75.11554 34871 ft 538 kts 83°
2026-05-06 22:32 42.64278 -75.01476 34892 ft 539 kts 82°
2026-05-06 22:32 42.65205 -74.91357 34868 ft 540 kts 83°
2026-05-06 22:33 42.66124 -74.81226 34863 ft 542 kts 83°
2026-05-06 22:33 42.67038 -74.71054 34852 ft 543 kts 83°
2026-05-06 22:34 42.67943 -74.60888 34839 ft 544 kts 83°
2026-05-06 22:34 42.68835 -74.50743 34851 ft 544 kts 83°
2026-05-06 22:35 42.69725 -74.40525 34833 ft 544 kts 83°
2026-05-06 22:35 42.70597 -74.30415 34824 ft 543 kts 83°
2026-05-06 22:36 42.71460 -74.20292 34820 ft 543 kts 83°
2026-05-06 22:36 42.72319 -74.10109 34848 ft 542 kts 84°
2026-05-06 22:37 42.73169 -73.99931 34795 ft 540 kts 84°
2026-05-06 22:37 42.74006 -73.89803 34804 ft 538 kts 84°
2026-05-06 22:38 42.74799 -73.79713 34804 ft 535 kts 88°
2026-05-06 22:38 42.74866 -73.69577 34496 ft 539 kts 94°
2026-05-06 22:39 42.74740 -73.64494 34241 ft 537 kts 94°
2026-05-06 22:39 42.74615 -73.59416 34004 ft 536 kts 94°
2026-05-06 22:39 42.74518 -73.54348 33739 ft 536 kts 94°
2026-05-06 22:39 42.74449 -73.49280 33131 ft 536 kts 93°
2026-05-06 22:40 42.74401 -73.44215 32577 ft 535 kts 93°
2026-05-06 22:40 42.74361 -73.39146 31981 ft 536 kts 93°
2026-05-06 22:40 42.74318 -73.34002 31383 ft 537 kts 93°
2026-05-06 22:40 42.74271 -73.28921 30734 ft 538 kts 93°
2026-05-06 22:41 42.74162 -73.18741 29579 ft 538 kts 93°
2026-05-06 22:41 42.74103 -73.13673 29061 ft 535 kts 93°
2026-05-06 22:41 42.73953 -73.08642 28558 ft 528 kts 99°
2026-05-06 22:42 42.73489 -73.03722 28126 ft 521 kts 103°
2026-05-06 22:42 42.72862 -72.98897 27609 ft 516 kts 105°
2026-05-06 22:42 42.72201 -72.94135 27118 ft 510 kts 105°
2026-05-06 22:42 42.71569 -72.89406 26683 ft 505 kts 104°
2026-05-06 22:43 42.70981 -72.84730 26219 ft 500 kts 103°
2026-05-06 22:43 42.70426 -72.80084 25761 ft 495 kts 103°
2026-05-06 22:43 42.69891 -72.75483 25310 ft 490 kts 103°
2026-05-06 22:43 42.69362 -72.70926 24855 ft 485 kts 103°
2026-05-06 22:44 42.68837 -72.66451 24418 ft 474 kts 103°
2026-05-06 22:44 42.68319 -72.62080 23984 ft 463 kts 103°
2026-05-06 22:44 42.67806 -72.57816 23536 ft 453 kts 103°
2026-05-06 22:44 42.67297 -72.53631 23096 ft 446 kts 104°
2026-05-06 22:45 42.66791 -72.49497 22643 ft 442 kts 104°
2026-05-06 22:45 42.66286 -72.45385 22185 ft 439 kts 104°
2026-05-06 22:45 42.65786 -72.41315 21749 ft 435 kts 104°
2026-05-06 22:45 42.65290 -72.37279 21318 ft 432 kts 104°
2026-05-06 22:46 42.64797 -72.33275 20918 ft 428 kts 104°
2026-05-06 22:46 42.64312 -72.29293 20389 ft 428 kts 104°
2026-05-06 22:46 42.63845 -72.25300 19804 ft 429 kts 104°
2026-05-06 22:46 42.63379 -72.21247 19337 ft 427 kts 104°
2026-05-06 22:47 42.62923 -72.17280 18873 ft 425 kts 104°
2026-05-06 22:47 42.62463 -72.13315 18341 ft 424 kts 104°
2026-05-06 22:47 42.62005 -72.09384 17737 ft 418 kts 104°
2026-05-06 22:47 42.61551 -72.05516 17152 ft 412 kts 104°
2026-05-06 22:48 42.61092 -72.01688 16585 ft 411 kts 104°
2026-05-06 22:48 42.60617 -71.97863 16024 ft 412 kts 105°
2026-05-06 22:48 42.60135 -71.94021 15457 ft 413 kts 104°
2026-05-06 22:48 42.59657 -71.90190 14873 ft 410 kts 104°
2026-05-06 22:49 42.59186 -71.86403 14307 ft 403 kts 104°
2026-05-06 22:49 42.58724 -71.82695 13814 ft 394 kts 104°
2026-05-06 22:49 42.58236 -71.79100 13276 ft 383 kts 106°
2026-05-06 22:49 42.57673 -71.75560 12609 ft 379 kts 107°
2026-05-06 22:50 42.57104 -71.72118 12150 ft 370 kts 107°
2026-05-06 22:50 42.56546 -71.68715 11767 ft 368 kts 106°
2026-05-06 22:50 42.56002 -71.65336 11384 ft 366 kts 106°
2026-05-06 22:50 42.55469 -71.61984 11150 ft 359 kts 106°
2026-05-06 22:51 42.54947 -71.58720 10965 ft 350 kts 107°
2026-05-06 22:51 42.54340 -71.55566 10652 ft 341 kts 110°
2026-05-06 22:51 42.53696 -71.52527 10377 ft 329 kts 111°
2026-05-06 22:51 42.53061 -71.49576 10123 ft 324 kts 111°
2026-05-06 22:52 42.52440 -71.46671 9864 ft 321 kts 110°
2026-05-06 22:52 42.51828 -71.43763 9583 ft 319 kts 110°
2026-05-06 22:52 42.51227 -71.40883 9295 ft 317 kts 110°
2026-05-06 22:52 42.50629 -71.38019 9021 ft 314 kts 110°
2026-05-06 22:53 42.50036 -71.35145 8752 ft 312 kts 109°
2026-05-06 22:53 42.49478 -71.32349 8459 ft 310 kts 109°
2026-05-06 22:53 42.48913 -71.29502 8157 ft 307 kts 109°
2026-05-06 22:53 42.48360 -71.26718 7740 ft 306 kts 109°
2026-05-06 22:54 42.47804 -71.23933 7374 ft 305 kts 109°
2026-05-06 22:54 42.47250 -71.21167 7009 ft 304 kts 109°
2026-05-06 22:54 42.46698 -71.18420 6691 ft 303 kts 108°
2026-05-06 22:54 42.46447 -71.15604 6479 ft 305 kts 84°
2026-05-06 22:55 42.47030 -71.12892 6288 ft 297 kts 66°
2026-05-06 22:55 42.47923 -71.10412 6095 ft 287 kts 62°
2026-05-06 22:55 42.48826 -71.08061 6043 ft 276 kts 59°
2026-05-06 22:55 42.50045 -71.06137 6035 ft 265 kts 30°
2026-05-06 22:56 42.51633 -71.04988 6038 ft 255 kts 16°
2026-05-06 22:56 42.53287 -71.04183 6049 ft 250 kts 13°
2026-05-06 22:56 42.54922 -71.03418 5976 ft 247 kts 13°
2026-05-06 22:56 42.56541 -71.02646 5712 ft 247 kts 14°
2026-05-06 22:57 42.58162 -71.01862 5445 ft 247 kts 13°
2026-05-06 22:57 42.59792 -71.01166 5234 ft 244 kts 10°
2026-05-06 22:57 42.61426 -71.00533 4991 ft 244 kts
2026-05-06 22:57 42.63048 -70.99917 4808 ft 241 kts
2026-05-06 22:58 42.64673 -70.99320 4553 ft 242 kts
2026-05-06 22:58 42.66201 -70.98303 4286 ft 251 kts 39°
2026-05-06 22:58 42.67165 -70.96373 4085 ft 249 kts 71°
2026-05-06 22:58 42.67305 -70.94050 3666 ft 248 kts 106°
2026-05-06 22:59 42.66580 -70.92021 3300 ft 235 kts 141°
2026-05-06 22:59 42.65251 -70.90898 3048 ft 217 kts 171°
2026-05-06 22:59 42.63826 -70.90437 3029 ft 221 kts 175°
2026-05-06 22:59 42.62836 -70.90162 2986 ft 220 kts 175°
2026-05-06 23:00 42.61355 -70.89754 2978 ft 214 kts 176°
2026-05-06 23:00 42.59916 -70.89387 2961 ft 204 kts 185°
2026-05-06 23:00 42.58607 -70.89817 3002 ft 195 kts 211°
2026-05-06 23:00 42.57310 -70.90505 2985 ft 204 kts 204°
2026-05-06 23:01 42.55965 -70.91107 2983 ft 202 kts 204°
2026-05-06 23:01 42.54653 -70.91721 2975 ft 198 kts 205°
2026-05-06 23:01 42.53370 -70.92336 2975 ft 194 kts 206°
2026-05-06 23:01 42.52115 -70.92944 2977 ft 194 kts 206°
2026-05-06 23:02 42.50844 -70.93560 2815 ft 192 kts 206°
2026-05-06 23:02 42.49611 -70.94156 2582 ft 185 kts 206°
2026-05-06 23:02 42.48420 -70.94731 2355 ft 179 kts 206°
2026-05-06 23:02 42.47266 -70.95291 2115 ft 173 kts 205°
2026-05-06 23:03 42.46152 -70.95832 1872 ft 165 kts 202°
2026-05-06 23:03 42.45117 -70.96333 1669 ft 148 kts 201°
2026-05-06 23:03 42.44205 -70.96774 1499 ft 133 kts 201°
2026-05-06 23:03 42.43298 -70.97215 1309 ft 139 kts 201°
2026-05-06 23:04 42.42404 -70.97647 1100 ft 135 kts 201°
2026-05-06 23:04 42.41513 -70.98081 923 ft 138 kts 201°
2026-05-06 23:04 42.40574 -70.98534 725 ft 143 kts 200°
2026-05-06 23:04 42.39637 -70.98990 526 ft 140 kts 200°
2026-05-06 23:05 42.38735 -70.99424 354 ft 136 kts 199°
2026-05-06 23:05 42.37840 -70.99872 135 ft 139 kts 198°
2026-05-06 23:05 42.36924 -71.00304 27 ft 132 kts 198°
2026-05-06 23:05 42.36212 -71.00641 24 ft 79 kts 199°
2026-05-06 23:06 42.35902 -71.00795 28 ft 17 kts 200°
2026-05-06 23:06 42.35814 -71.00856 27 ft 12 kts 237°
2026-05-06 23:06 42.35816 -71.00964 24 ft 12 kts 278°
2026-05-06 23:06 42.35827 -71.01071 24 ft 11 kts 277°
2026-05-06 23:07 42.35838 -71.01175 25 ft 11 kts 277°
2026-05-06 23:07 42.35848 -71.01276 27 ft 11 kts 277°
2026-05-06 23:07 42.35858 -71.01374 24 ft 10 kts 278°
2026-05-06 23:07 42.35870 -71.01469 24 ft 10 kts 280°
2026-05-06 23:08 42.35880 -71.01541 28 ft 7 kts 281°
2026-05-06 23:08 42.35891 -71.01607 28 ft 7 kts 286°
2026-05-06 23:08 42.35928 -71.01633 27 ft 7 kts 19°
2026-05-06 23:08 42.35982 -71.01603 26 ft 10 kts 20°
2026-05-06 23:09 42.36051 -71.01569 26 ft 11 kts 20°
2026-05-06 23:09 42.36121 -71.01535 27 ft 10 kts 20°
2026-05-06 23:09 42.36188 -71.01503 27 ft 10 kts 19°
2026-05-06 23:09 42.36254 -71.01472 27 ft 10 kts 20°
2026-05-06 23:10 42.36306 -71.01446 27 ft 5 kts 19°
2026-05-06 23:10 42.36320 -71.01476 28 ft 5 kts 244°
2026-05-06 23:10 42.36314 -71.01511 26 ft 4 kts 274°
2026-05-06 23:10 42.36323 -71.01543 28 ft 4 kts 291°
2026-05-06 23:11 42.36325 -71.01549 28 ft 0 kts 291°